Regional Weather Roundup
Issued by NWS Goodland, KS

Home | Current Version | Previous Version | Graphics & Text | Print | Product List | Glossary On
Versions: 1 2 3 4 5 6 7 8 9 10 11 12 13 14 15 16 17 18 19 20 21 22 23 24 25 26 27 28 29 30 31 32 33 34 35 36 37 38 39 40 41 42 43 44 45 46 47 48 49 50
000
ASUS43 KGLD 181459
RWRGLD

GOODLAND FORECAST AREA HOURLY WEATHER ROUNDUP
NATIONAL WEATHER SERVICE GOODLAND KS
800 AM MST SAT NOV 18 2017

...OFFICIAL OBSERVATIONS...

CITY           SKY/WX    TMP DP  RH WIND       PRES   REMARKS
GOODLAND KS    SUNNY     36  25  64 NW20G28   30.18R
HILL CITY KS   MOSUNNY   42  37  82 NW22G31   30.11R
IMPERIAL NEB   SUNNY     35  24  64 NW21G29   30.17R
MCCOOK NEB     SUNNY     39  32  76 NW21G31   30.13R
AKRON CO       SUNNY     31  19  61 NW20G29   30.22R WCI  19
BURLINGTON CO  SUNNY     35  21  56 NW18G29   30.21R
LIMON CO       SUNNY     26  20  77 NW13      30.23R WCI  15
$$

...UNOFFICIAL OBSERVATIONS...

CITY           SKY/WX    TMP DP  RH WIND       PRES   REMARKS
LENORA KS        N/A     39  32  76 NW14        N/A
NORTON KS      SUNNY     39  32  75 NW22G30   30.10
SHARON SPRINGS   N/A     36  27  71 NW21G29     N/A
TRENTON NEB      N/A     36  32  85 NW13        N/A
KIT CARSON CO    N/A     33  21  60 MISG        N/A
YUMA CO        FAIR      30  23  74 W10       30.22R
$$



USA.gov is the U.S. government's official web portal to all federal, state and local government web resources and services.